Location: Unspecified
(0.0000°N, 0.0000°E)
Time: 02:05:13
(UTC+02:00)

Cosmos 2237 Rocket - Visible Passes

Search period start: 28 May 2016 00:00
Search period end: 07 June 2016 00:00
Orbit: 835 x 850 km, 71.0° (Epoch: 27 May)

Date Brightness Start Highest point End Pass type
(mag) Time Alt. Az. Time Alt. Az. Time Alt. Az.
28 May 3.1 07:31:19 10° N 07:36:53 57° ENE 07:42:26 10° SSE visible
28 May 3.9 20:16:13 10° SW 20:21:23 38° WNW 20:26:33 10° N visible
29 May 3.2 07:16:33 10° N 07:22:04 53° ENE 07:27:36 10° SSE visible
30 May 3.3 07:01:47 10° N 07:07:15 50° ENE 07:12:44 10° SSE visible
31 May 3.4 06:47:01 10° N 06:52:26 46° ENE 06:57:51 10° SSE visible
01 Jun 3.4 06:32:15 10° N 06:37:38 43° ENE 06:42:59 10° SE visible
02 Jun 3.5 06:17:31 10° N 06:22:48 40° ENE 06:28:06 10° SE visible
03 Jun 3.6 06:02:46 10° N 06:08:00 38° ENE 06:13:13 10° SE visible
04 Jun 3.7 05:48:02 10° N 05:53:11 35° ENE 05:58:19 10° SE visible
05 Jun 3.7 05:33:19 10° NNE 05:38:21 33° ENE 05:43:24 10° SE visible
05 Jun 3.5 07:18:35 10° WNW 07:22:08 17° WSW 07:25:41 10° SW visible
06 Jun 3.8 05:18:35 10° NNE 05:23:32 31° ENE 05:28:30 10° SE visible
06 Jun 3.5 07:03:33 10° WNW 07:07:19 18° WSW 07:11:05 10° SSW visible
